Weather History for Wilmington, OH

Change the Weather History Date:

Tuesday, March 25, 2014

  Actual Average (KDAY) Record (KDAY)
Temperature  
Mean Temperature 30 °F 44 °F  
Max Temperature 37 °F 53 °F 84 °F (1929)
Min Temperature 23 °F 34 °F 1 °F (1974)
Degree Days  
Heating Degree Days 36 21  
Month to date heating degree days 644  
Since 1 July heating degree days 4919  
Cooling Degree Days 0 0  
Month to date cooling degree days 0  
Year to date cooling degree days 0  
Moisture  
Dew Point 20 °F    
Average Humidity 69    
Maximum Humidity 92    
Minimum Humidity 44    
Precipitation  
Precipitation 0.03 in 0.12 in 2.27 in (1913)
Month to date precipitation 2.59  
Year to date precipitation 7.54  
Snow  
Snow 0.00 in 0.00 in 3.90 in (1955)
Month to date snowfall 3.0  
Since 1 July snowfall 22.3  
Snow Depth -    
Sea Level Pressure  
Sea Level Pressure 30.05 in    
Wind  
Wind Speed 10 mph (NW)    
Max Wind Speed 25 mph    
Max Gust Speed 34 mph    
Visibility 7 miles    
Events Fog , Snow    
T = Trace of Precipitation, MM = Missing Value Source: NWS Daily Summary

Daily Weather History Graph

Daily Weather History Graph

Search for Another Location

Airport:

Trip Planner

Search our weather history database for the weather conditions in past years. The results will help you decide how hot, cold, wet, or windy it might be!

Date:

Astronomy

Mar. 25, 2014 Rise Set
Actual Time 7:30 AM EDT 7:52 PM EDT
Civil Twilight 7:03 AM EDT 8:19 PM EDT
Nautical Twilight 6:32 AM EDT 8:50 PM EDT
Astronomical Twilight 6:00 AM EDT 9:23 PM EDT
Moon 3:50 AM EDT (3/25) 2:23 PM EDT (3/25)
Length of Visible Light 13h 15m
Length of Day
12h 21m
Waning Crescent, 32% of the Moon is Illuminated
Mar 25
Waning Crescent
Mar 30
New
Apr 7
First Quarter
Apr 15
Full
Apr 22
Last Quarter

Hourly Weather History & Observations

Time (EDT) Temp. Windchill Dew Point Humidity Pressure Visibility Wind Dir Wind Speed Gust Speed Precip Events Conditions
12:54 AM 28.0 °F 21.7 °F 17.1 °F 63% 30.15 in 10.0 mi NNE 5.8 mph - N/A   Clear
1:54 AM 27.0 °F 19.5 °F 17.1 °F 66% 30.14 in 10.0 mi NNE 6.9 mph - N/A   Clear
2:54 AM 27.0 °F 23.0 °F 17.1 °F 66% 30.12 in 10.0 mi NE 3.5 mph - N/A   Overcast
3:54 AM 27.0 °F 23.0 °F 17.1 °F 66% 30.10 in 10.0 mi NE 3.5 mph - N/A   Overcast
4:54 AM 27.0 °F 21.6 °F 17.1 °F 66% 30.08 in 10.0 mi NE 4.6 mph - N/A   Overcast
5:54 AM 27.0 °F 23.0 °F 16.0 °F 63% 30.06 in 10.0 mi ENE 3.5 mph - N/A   Overcast
6:54 AM 26.1 °F - 17.1 °F 69% 30.05 in 10.0 mi Calm Calm - N/A   Overcast
7:54 AM 27.0 °F - 16.0 °F 63% 30.05 in 10.0 mi Calm Calm - N/A   Overcast
8:54 AM 30.0 °F - 15.1 °F 54% 30.05 in 10.0 mi Calm Calm - N/A   Overcast
9:54 AM 32.0 °F - 15.1 °F 50% 30.05 in 10.0 mi Calm Calm - N/A   Overcast
10:54 AM 33.1 °F 26.1 °F 15.1 °F 48% 30.05 in 10.0 mi NW 8.1 mph - N/A   Overcast
11:54 AM 33.1 °F 25.5 °F 15.1 °F 48% 30.05 in 10.0 mi WNW 9.2 mph - N/A   Overcast
12:54 PM 35.1 °F 26.9 °F 15.1 °F 44% 30.03 in 10.0 mi WSW 11.5 mph - N/A   Overcast
1:54 PM 35.1 °F 25.9 °F 17.1 °F 48% 30.04 in 10.0 mi West 13.8 mph - N/A   Overcast
2:24 PM 33.1 °F 21.9 °F 23.0 °F 66% 29.95 in 1.8 mi West 18.4 mph 24.2 mph 0.00 in Snow Light Snow
2:34 PM 32.0 °F 22.5 °F 25.0 °F 75% 29.95 in 2.0 mi West 12.7 mph 23.0 mph 0.00 in Snow Light Snow
2:41 PM 35.1 °F 26.4 °F 26.1 °F 70% 29.95 in 3.0 mi West 12.7 mph - 0.00 in Snow Light Snow
2:54 PM 33.1 °F 23.0 °F 21.9 °F 64% 30.03 in 9.0 mi West 15.0 mph - 0.00 in   Overcast
2:58 PM 32.0 °F 21.6 °F 23.0 °F 69% 29.95 in 1.8 mi West 15.0 mph - 0.00 in Snow Light Snow
3:06 PM 30.0 °F 18.3 °F 26.1 °F 85% 29.96 in 0.2 mi WNW 17.3 mph - 0.00 in Fog , Snow Snow
3:15 PM 30.0 °F 16.0 °F 26.1 °F 85% 29.97 in 0.5 mi WNW 25.3 mph 32.2 mph 0.00 in Fog , Snow Light Snow
3:21 PM 28.0 °F 17.0 °F 26.1 °F 92% 29.97 in 0.2 mi WNW 13.8 mph 32.2 mph 0.00 in Fog , Snow Snow
3:44 PM 28.9 °F 20.4 °F 27.0 °F 92% 29.96 in 0.8 mi WNW 9.2 mph - 0.02 in Snow Light Snow
3:54 PM 28.9 °F 16.9 °F 26.1 °F 89% 30.05 in 0.5 mi NW 17.3 mph 25.3 mph 0.02 in Fog , Snow Snow
4:01 PM 28.9 °F 17.7 °F 27.0 °F 92% 29.97 in 0.2 mi NW 15.0 mph 25.3 mph 0.00 in Fog , Snow Snow
4:05 PM 30.0 °F 18.7 °F 26.1 °F 85% 29.97 in 0.8 mi NW 16.1 mph 24.2 mph 0.00 in Snow Light Snow
4:09 PM 30.0 °F 19.1 °F 26.1 °F 85% 29.97 in 2.5 mi NW 15.0 mph 21.9 mph 0.00 in Snow Light Snow
4:16 PM 30.9 °F 19.4 °F 25.0 °F 79% 29.97 in 7.0 mi WNW 17.3 mph 21.9 mph 0.00 in Snow Light Snow
4:25 PM 33.1 °F 22.2 °F 23.0 °F 66% 29.97 in 10.0 mi NW 17.3 mph 28.8 mph 0.00 in   Mostly Cloudy
4:54 PM 30.0 °F 19.1 °F 23.0 °F 75% 30.07 in 10.0 mi NW 15.0 mph - 0.00 in   Overcast
5:03 PM 30.9 °F 21.2 °F 24.1 °F 76% 29.99 in 9.0 mi NW 12.7 mph - N/A   Overcast
5:12 PM 30.9 °F 19.8 °F 23.0 °F 72% 29.99 in 9.0 mi NNW 16.1 mph - N/A   Overcast
5:49 PM 30.2 °F 19.3 °F 23.0 °F 75% 30.01 in 6.0 mi NW 15.0 mph 21.9 mph 0.01 in Snow Light Snow
5:54 PM 30.9 °F 21.7 °F 23.0 °F 72% 30.09 in 9.0 mi NW 11.5 mph - 0.01 in   Overcast
6:12 PM 30.0 °F 16.3 °F 18.0 °F 61% 30.02 in 10.0 mi WNW 24.2 mph 33.4 mph N/A   Overcast
6:54 PM 30.0 °F 16.0 °F 16.0 °F 56% 30.12 in 10.0 mi WNW 25.3 mph 34.5 mph N/A   Mostly Cloudy
7:54 PM 28.0 °F 15.7 °F 14.0 °F 56% 30.15 in 10.0 mi WNW 17.3 mph 24.2 mph N/A   Scattered Clouds
8:54 PM 26.1 °F 12.7 °F 17.1 °F 69% 30.18 in 10.0 mi NW 18.4 mph 26.5 mph N/A   Partly Cloudy
9:54 PM 25.0 °F 12.6 °F 17.1 °F 72% 30.20 in 10.0 mi NW 15.0 mph 24.2 mph N/A   Scattered Clouds
10:54 PM 24.1 °F 12.0 °F 15.1 °F 69% 30.22 in 10.0 mi NW 13.8 mph 20.7 mph N/A   Scattered Clouds
11:54 PM 23.0 °F 13.1 °F 16.0 °F 74% 30.24 in 10.0 mi WNW 9.2 mph - N/A   Clear